Satellite-Ground Cal/Val Site Overpasses Predictions

Prediction of Satellite NPP Overpassing Cal/Val Site: Antarctic Dome C

Ground Cal/Val Site Location: Latitude: -75.10, Longitude: 123.35; Satellite-Ground Site NADIR distance within 100 km.

Table of predicted overpasses for the next 14.0 days since TLE Epoch: 10/25/2013
Interval Starting Time Ending Time Minimum Distance Time Minimum Distance (km)
1 10/28/2013 14:49:53 10/28/2013 14:50:22 10/28/2013 14:50:07 10.71
2 10/30/2013 07:32:43 10/30/2013 07:33:12 10/30/2013 07:32:57 3.86
3 11/02/2013 14:56:11 11/02/2013 14:56:39 11/02/2013 14:56:25 25.57
4 11/03/2013 14:37:28 11/03/2013 14:37:45 11/03/2013 14:37:36 81.57
5 11/04/2013 07:39:01 11/04/2013 07:39:28 11/04/2013 07:39:15 32.48
6 11/05/2013 07:20:16 11/05/2013 07:20:35 11/05/2013 07:20:26 77.78


NCC Satellite Cal/Val Overpasses Prediction Service
